Flag for U.S.A. Weather past 2 weeks in Hayward, California, U.S.A.

Now
79 °F

Sunny.


Feels Like: 80 °F
Forecast: 58 / 82 °F
Wind: 10 mph from West

Location: Hayward Air Terminal

Current Time: Jul 24, 2014 at 1:31:45 PM

Latest Report: Jul 24, 2014 at 12:54 PM


Visibility: 10 mi

Pressure: 29.97 "Hg

Humidity: 48%

Dew point: 58 °F

Location of HaywardLocation

Historic Weather in Hayward — Graph

°F

Hayward temperature yesterday

Maximum temperature yesterday: 77 °F (at 11:54 AM)
Minimum temperature yesterday: 65 °F (at 10:54 PM)
Average temperature yesterday: 71 °F

Past Weeks' High & Low Weather Summary

 TemperatureHumidityPressure
High79 °F (Jul 15, 1:54 PM)100% (Jul 9, 9:54 PM)30.17 "Hg (Jul 9, 9:54 PM)
Low57 °F (Jul 12, 8:01 PM)48% (Jul 14, 2:54 PM)29.88 "Hg (Jul 14, 5:54 AM)
Average66 °F79%30.01 "Hg
* Reported Jul 9 11:54 AM — Jul 24 11:54 AM, Hayward, Weather by CustomWeather, © 2014

Note: Actual official high and low records may vary slightly from our data, if they occured in-between our weather recording intervals... More about our weather records

Advertising

Hayward weather history for previous 24 hours

 ConditionsComfort  
Time TempWeatherWind HumidityBarometerVisibility
11:54 AM
Jul 24
77 °FSunny.7 mph56%29.99 "Hg10 mi
10:54 AM74 °FSunny.3 mph60%30.01 "Hg10 mi
9:54 AM70 °FSunny.5 mph73%30.03 "Hg10 mi
8:54 AM67 °FPassing clouds.5 mph81%30.04 "Hg10 mi
7:54 AM65 °FLow clouds.No wind87%30.05 "Hg10 mi
6:54 AM64 °FLow clouds.No wind90%30.04 "Hg10 mi
5:54 AM63 °FPassing clouds.No wind93%30.04 "Hg10 mi
4:54 AM64 °FLow clouds.No wind94%30.03 "Hg10 mi
3:54 AM65 °FLow clouds.6 mph94%30.04 "Hg10 mi
3:04 AM64 °FPassing clouds.7 mph94%30.03 "Hg10 mi
2:54 AM65 °FPassing clouds.9 mph91%30.06 "Hg10 mi
1:54 AM65 °FPassing clouds.8 mph91%30.06 "Hg10 mi
12:54 AM66 °FClear.No wind84%30.07 "Hg10 mi
11:54 PM
Jul 23
67 °FClear.3 mph85%30.07 "Hg10 mi
10:54 PM65 °FClear.No wind91%30.07 "Hg10 mi
9:54 PM68 °FClear.6 mph78%30.08 "Hg10 mi
8:54 PM68 °FSunny.9 mph82%30.08 "Hg10 mi
7:54 PM69 °FPassing clouds.15 mph79%30.08 "Hg10 mi
6:54 PM70 °FSunny.13 mph76%30.09 "Hg10 mi
5:54 PM72 °FSunny.16 mph64%30.09 "Hg10 mi
4:54 PM74 °FSunny.17 mph69%30.10 "Hg10 mi
3:54 PM73 °FSunny.16 mph69%30.11 "Hg10 mi
2:54 PM76 °FSunny.15 mph62%30.13 "Hg10 mi
1:54 PM77 °FSunny.13 mph58%30.14 "Hg10 mi
Weather by CustomWeather, © 2014

See weather overviewHow to use our weather pages